This demonstration page uses our WeatherBlox Daily Observations layout. Learn more.

Hourly Observations for March 14, 2015

Temp ( °F °C ) Dew Point ( °F °C ) Humidity (%) Winds ( mph kmh ) Pressure ( in mb ) Visibility ( mi km ) Precip ( " mm )
12:15 am 00:15 Clear 44 6.8 24 -4.4 45 45 N 9 15 30.33 1027 10 16.0934 0 0
12:35 am 00:35 Clear 42 5.5 24 -4.2 50 50 N 10 17 30.33 1027 10 16.0934 0 0
12:55 am 00:55 Clear 44 6.4 26 -3.2 51 51 N 8 13 30.33 1027 10 16.0934 0 0
1:15 am 01:15 Clear 45 7.4 27 -2.8 49 49 N 9 15 30.33 1027 10 16.0934 0 0
1:35 am 01:35 Clear 44 6.8 27 -2.8 51 51 N 8 13 30.33 1027 10 16.0934 0 0
1:55 am 01:55 Clear 40 4.2 26 -3.6 57 57 NNW 9 15 30.36 1028 10 16.0934 0 0
2:15 am 02:15 Clear 41 4.8 26 -3.2 57 57 NNW 9 15 30.36 1028 10 16.0934 0 0
2:35 am 02:35 Clear 39 4 26 -3.5 58 58 NNW 8 13 30.36 1028 10 16.0934 0 0
2:55 am 02:55 Clear 38 3.3 26 -3.4 62 62 NNW 8 13 30.36 1028 10 16.0934 0 0
3:15 am 03:15 Clear 35 1.5 25 -4.1 67 67 NNW 7 11 30.39 1029 10 16.0934 0 0
3:35 am 03:35 Clear 35 1.7 25 -3.7 68 68 NNW 6 9 30.39 1029 10 16.0934 0 0
3:55 am 03:55 Clear 35 1.5 25 -3.7 69 69 NNW 6 9 30.39 1029 10 16.0934 0 0
4:15 am 04:15 Clear 36 2.3 27 -2.9 69 69 N 6 9 30.39 1029 10 16.0934 0 0
4:35 am 04:35 Clear 37 3 28 -2.2 69 69 N 7 11 30.36 1028 10 16.0934 0 0
4:55 am 04:55 Clear 39 3.7 28 -2 67 67 N 8 13 30.36 1028 10 16.0934 0 0
5:15 am 05:15 Clear 37 3 28 -2.3 68 68 N 7 11 30.36 1028 10 16.0934 0 0
5:35 am 05:35 Clear 32 0.1 25 -3.9 75 75 NW 6 9 30.42 1030 10 16.0934 0 0
5:55 am 05:55 Clear 31 -0.7 24 -4.3 77 77 NW 8 13 30.45 1031 10 16.0934 0 0
6:15 am 06:15 Clear 31 -0.5 25 -3.8 79 79 NW 7 11 30.42 1030 10 16.0934 0 0
6:35 am 06:35 Clear 31 -0.7 25 -3.9 79 79 NW 8 13 30.45 1031 10 16.0934 0 0
6:55 am 06:55 Clear 31 -0.3 26 -3.5 79 79 NW 8 13 30.42 1030 10 16.0934 0 0
7:15 am 07:15 Clear 30 -1.3 25 -4 82 82 WNW 8 13 30.45 1031 10 16.0934 0 0
7:35 am 07:35 Clear 31 -0.5 25 -3.7 79 79 WNW 7 11 30.45 1031 10 16.0934 0 0
7:55 am 07:55 Sunny 31 -0.5 25 -3.9 78 78 NW 8 13 30.45 1031 10 16.0934 0 0
8:15 am 08:15 Sunny 30 -1.2 25 -4.1 81 81 NW 9 15 30.48 1032 10 16.0934 0 0
8:35 am 08:35 Sunny 30 -1 25 -3.9 81 81 NW 9 15 30.48 1032 10 16.0934 0 0
8:55 am 08:55 Sunny 33 0.8 27 -3 76 76 WNW 9 15 30.45 1031 10 16.0934 0 0
9:15 am 09:15 Sunny 35 1.6 28 -2.4 75 75 NW 8 13 30.45 1031 10 16.0934 0 0
9:35 am 09:35 Sunny 40 4.5 30 -1.3 66 66 NW 7 11 30.42 1030 10 16.0934 0 0
9:55 am 09:55 Sunny 44 6.6 30 -1.1 58 58 NNW 5 7 30.42 1030 10 16.0934 0 0
10:15 am 10:15 Sunny 47 8.4 29 -1.8 49 49 NNW 6 9 30.42 1030 10 16.0934 0 0
10:35 am 10:35 Sunny 51 10.6 27 -3 39 39 N 7 11 30.39 1029 10 16.0934 0 0
10:55 am 10:55 Sunny 53 11.7 25 -3.7 34 34 NNW 5 7 30.36 1028 10 16.0934 0 0
11:15 am 11:15 Sunny 55 12.5 24 -4.3 31 31 Calm 30.33 1027 10 16.0934 0 0
11:35 am 11:35 Sunny 56 13.3 24 -4.7 29 29 NE 6 9 30.33 1027 10 16.0934 0 0
11:55 am 11:55 Sunny 58 14.4 23 -5 26 26 ESE 7 11 30.33 1027 10 16.0934 0 0
12:15 pm 12:15 Sunny 58 14.7 21 -6.3 23 23 E 7 11 30.33 1027 10 16.0934 0 0
12:35 pm 12:35 Sunny 59 15 19 -7.4 21 21 E 7 11 30.33 1027 10 16.0934 0 0
12:55 pm 12:55 Sunny 60 15.3 16 -8.7 18 18 Calm 30.3 1026 10 16.0934 0 0
1:15 pm 13:15 Sunny 60 15.6 18 -7.9 19 19 S 5 7 30.27 1025 10 16.0934 0 0
1:35 pm 13:35 Sunny 60 15.8 17 -8.3 18 18 SE 6 9 30.27 1025 10 16.0934 0 0
1:55 pm 13:55 Sunny 61 16.1 15 -9.6 16 16 ESE 5 7 30.27 1025 10 16.0934 0 0
2:15 pm 14:15 Sunny 61 16.2 15 -9.4 16 16 SSW 3 6 30.24 1024 10 16.0934 0 0
2:35 pm 14:35 Sunny 62 16.9 14 -10 15 15 S 6 9 30.24 1024 10 16.0934 0 0
2:55 pm 14:55 Sunny 63 17.3 14 -10.2 14 14 S 3 6 30.21 1023 10 16.0934 0 0
3:15 pm 15:15 Sunny 63 17.2 14 -10.1 15 15 SSE 8 13 30.21 1023 10 16.0934 0 0
3:35 pm 15:35 Sunny 63 17.2 13 -10.5 14 14 Calm 30.18 1022 10 16.0934 0 0
3:55 pm 15:55 Sunny 63 17.4 12 -11 13 13 Calm 30.18 1022 10 16.0934 0 0
4:15 pm 16:15 Sunny 64 18 13 -10.8 13 13 Calm 30.18 1022 10 16.0934 0 0
4:35 pm 16:35 Sunny 64 17.8 13 -10.4 14 14 SSE 6 9 30.18 1022 10 16.0934 0 0
4:55 pm 16:55 Sunny 64 18 13 -10.5 13 13 Calm 30.18 1022 10 16.0934 0 0
5:15 pm 17:15 Sunny 65 18.5 13 -10.6 13 13 S 7 11 30.15 1021 10 16.0934 0 0
5:35 pm 17:35 Sunny 64 18 13 -10.6 13 13 S 3 6 30.12 1020 10 16.0934 0 0
5:55 pm 17:55 Sunny 65 18.2 13 -10.7 13 13 SW 5 7 30.12 1020 10 16.0934 0 0
6:15 pm 18:15 Sunny 64 18 13 -10.3 14 14 SW 8 13 30.18 1022 10 16.0934 0 0
6:35 pm 18:35 Sunny 64 17.6 13 -10.5 14 14 SSW 6 9 30.12 1020 10 16.0934 0 0
6:55 pm 18:55 Sunny 63 17.1 14 -10.2 15 15 SW 6 9 30.15 1021 10 16.0934 0 0
7:15 pm 19:15 Sunny 62 16.5 13 -10.5 15 15 SSW 7 11 30.15 1021 10 16.0934 0 0
7:35 pm 19:35 Sunny 59 15.1 13 -10.6 16 16 S 7 11 30.18 1022 10 16.0934 0 0
7:55 pm 19:55 Clear 57 14 12 -11.3 16 16 S 8 13 30.18 1022 10 16.0934 0 0
8:15 pm 20:15 Clear 54 12.4 11 -11.5 18 18 S 5 7 30.18 1022 10 16.0934 0 0
8:35 pm 20:35 Clear 48 8.9 12 -11.1 23 23 S 5 7 30.21 1023 10 16.0934 0 0
8:55 pm 20:55 Clear 48 9 13 -10.6 24 24 S 6 9 30.21 1023 10 16.0934 0 0
9:15 pm 21:15 Clear 49 9.5 14 -10.1 24 24 S 10 17 30.21 1023 10 16.0934 0 0
9:35 pm 21:35 Clear 50 10.1 14 -10 23 23 S 13 20 30.21 1023 10 16.0934 0 0
9:55 pm 21:55 Clear 50 9.8 14 -10.2 24 24 S 13 20 30.21 1023 10 16.0934 0 0
10:15 pm 22:15 Clear 48 9 14 -10 25 25 S 13 20 30.21 1023 10 16.0934 0 0
10:35 pm 22:35 Clear 48 8.7 13 -10.5 25 25 SSW 14 22 30.21 1023 10 16.0934 0 0
10:55 pm 22:55 Clear 47 8.6 12 -10.9 24 24 SSW 12 19 30.21 1023 10 16.0934 0 0
11:15 pm 23:15 Clear 46 8 13 -10.6 26 26 S 13 20 30.21 1023 10 16.0934 0 0
11:35 pm 23:35 Clear 45 7.4 13 -10.5 27 27 S 14 22 30.24 1024 10 16.0934 0 0
11:55 pm 23:55 Clear 45 7.1 13 -10.3 28 28 SSW 12 19 30.24 1024 10 16.0934 0 0

Powered by AerisWeather